| time (UTC) | temp F | wind direction | speed MPH | gust MPH | rain 1hr in | rain 24hr in | rain mn in | humidity % | barometer mb |
| 20260902051112 | 69 | 128 | 4.0 | 10.0 | 0.00 | 0.00 | 0.00 | 48 | 1007.2 |
| 20260902050606 | 69 | 198 | 5.0 | 10.0 | 0.00 | 0.00 | 0.00 | 47 | 1007.2 |
| 20260902050319 | 69 | 199 | 5.0 | 13.0 | 0.00 | 0.00 | 0.00 | 48 | 1007.1 |
| 20260902045555 | 69 | 177 | 5.0 | 13.0 | 0.00 | 0.00 | 0.00 | 47 | 1007.0 |
| 20260902045049 | 68 | 199 | 5.0 | 14.0 | 0.00 | 0.00 | 0.00 | 48 | 1006.9 |
| 20260902044543 | 68 | 166 | 6.0 | 14.0 | 0.00 | 0.00 | 0.00 | 48 | 1006.8 |
| 20260902044037 | 68 | 147 | 5.0 | 12.0 | 0.00 | 0.00 | 0.00 | 48 | 1006.6 |
| 20260902043531 | 68 | 168 | 4.0 | 9.0 | 0.00 | 0.00 | 0.00 | 48 | 1006.3 |
| 20260902043025 | 68 | 181 | 4.0 | 9.0 | 0.00 | 0.00 | 0.00 | 49 | 1006.2 |
| 20260902042740 | 68 | 168 | 3.0 | 7.0 | 0.00 | 0.00 | 0.00 | 51 | 1006.1 |
| 20260902042011 | 68 | 176 | 3.0 | 7.0 | 0.00 | 0.00 | 0.00 | 53 | 1005.8 |
| 20260902041950 | 69 | 172 | 2.0 | 4.0 | 0.00 | 0.00 | 0.00 | 55 | 1005.8 |
| 20260902041003 | 69 | 174 | 2.0 | 4.0 | 0.00 | 0.00 | 0.00 | 55 | 1005.7 |
| 20260902040918 | 69 | 181 | 0.0 | 7.0 | 0.00 | 0.00 | 0.00 | 53 | 1005.5 |
| 20260902040539 | 69 | 168 | 1.0 | 3.0 | 0.00 | 0.00 | 0.00 | 54 | 1005.6 |
| 20260902035437 | 69 | 180 | 1.0 | 7.0 | 0.00 | 0.00 | 0.00 | 53 | 1005.5 |
| 20260902034932 | 69 | 251 | 2.0 | 10.0 | 0.00 | 0.00 | 0.00 | 53 | 1005.4 |
| 20260902034432 | 70 | 230 | 1.0 | 10.0 | 0.00 | 0.00 | 0.00 | 53 | 1005.5 |
| 20260902033931 | 70 | 97 | 0.0 | 0.0 | 0.00 | 0.00 | 0.00 | 52 | 1004.9 |
| 20260902033431 | 70 | 150 | 0.0 | 0.0 | 0.00 | 0.00 | 0.00 | 53 | 1004.6 |
| 20260902033134 | 71 | 55 | 0.0 | 0.0 | 0.00 | 0.00 | 0.00 | 52 | 1004.6 |
| 20260902033018 | 70 | 55 | 0.0 | 0.0 | 0.00 | 0.00 | 0.00 | 53 | 1004.6 |
| 20260902031927 | 71 | 56 | 0.0 | 2.0 | 0.00 | 0.00 | 0.00 | 50 | 1004.6 |
| 20260902031427 | 71 | 70 | 1.0 | 3.0 | 0.00 | 0.00 | 0.00 | 50 | 1004.5 |
| 20260902031411 | 71 | 87 | 2.0 | 3.0 | 0.00 | 0.00 | 0.00 | 51 | 1004.4 |
| 20260902030429 | 72 | 82 | 2.0 | 4.0 | 0.00 | 0.00 | 0.00 | 51 | 1004.3 |
| 20260902030402 | 72 | 77 | 2.0 | 4.0 | 0.00 | 0.00 | 0.00 | 51 | 1004.3 |
| 20260902025427 | 72 | 82 | 2.0 | 3.0 | 0.00 | 0.00 | 0.00 | 51 | 1004.2 |
| 20260902024922 | 73 | 85 | 1.0 | 3.0 | 0.00 | 0.00 | 0.00 | 51 | 1004.2 |
| 20260902024421 | 73 | 84 | 1.0 | 3.0 | 0.00 | 0.00 | 0.00 | 52 | 1004.2 |
| 20260902024142 | 74 | 65 | 0.0 | 3.0 | 0.00 | 0.00 | 0.00 | 53 | 1004.4 |
| 20260902023646 | 74 | 78 | 0.0 | 2.0 | 0.00 | 0.00 | 0.00 | 53 | 1004.2 |
| 20260902022921 | 75 | 90 | 0.0 | 3.0 | 0.00 | 0.00 | 0.00 | 53 | 1004.1 |
| 20260902022420 | 75 | 80 | 0.0 | 3.0 | 0.00 | 0.00 | 0.00 | 54 | 1004.2 |
| 20260902021921 | 76 | 109 | 0.0 | 0.0 | 0.00 | 0.00 | 0.00 | 53 | 1004.1 |
| 20260902021420 | 76 | 109 | 0.0 | 0.0 | 0.00 | 0.00 | 0.00 | 53 | 1004.1 |
| 20260902020921 | 77 | 109 | 0.0 | 0.0 | 0.00 | 0.00 | 0.00 | 53 | 1004.1 |
| 20260902020418 | 78 | 109 | 0.0 | 0.0 | 0.00 | 0.00 | 0.00 | 52 | 1004.1 |
| 20260902015916 | 78 | 109 | 0.0 | 0.0 | 0.00 | 0.00 | 0.00 | 50 | 1004.2 |
| 20260902015635 | 79 | 109 | 0.0 | 0.0 | 0.00 | 0.00 | 0.00 | 49 | 1004.3 |
| 20260902014917 | 79 | 109 | 0.0 | 0.0 | 0.00 | 0.00 | 0.00 | 49 | 1004.3 |
| 20260902014417 | 80 | 109 | 0.0 | 0.0 | 0.00 | 0.00 | 0.00 | 48 | 1004.3 |
| 20260902013916 | 80 | 109 | 0.0 | 0.0 | 0.00 | 0.00 | 0.00 | 46 | 1004.3 |
| 20260902013416 | 80 | 109 | 0.0 | 0.0 | 0.00 | 0.00 | 0.00 | 48 | 1004.3 |
| 20260902012916 | 80 | 109 | 0.0 | 0.0 | 0.00 | 0.00 | 0.00 | 47 | 1004.2 |
| 20260902012418 | 80 | 109 | 0.0 | 0.0 | 0.00 | 0.00 | 0.00 | 48 | 1004.3 |
| 20260902011914 | 79 | 208 | 0.0 | 0.0 | 0.00 | 0.00 | 0.00 | 47 | 1004.4 |
| 20260902011412 | 80 | 208 | 0.0 | 0.0 | 0.00 | 0.00 | 0.00 | 48 | 1004.3 |
| 20260902011145 | 80 | 208 | 0.0 | 0.0 | 0.00 | 0.00 | 0.00 | 44 | 1004.4 |
| 20260902010412 | 81 | 208 | 0.0 | 0.0 | 0.00 | 0.00 | 0.00 | 43 | 1004.4 |
| 20260902005912 | 82 | 230 | 0.0 | 0.0 | 0.00 | 0.00 | 0.00 | 42 | 1004.4 |
| 20260902005412 | 82 | 230 | 1.0 | 2.0 | 0.00 | 0.00 | 0.00 | 41 | 1004.4 |
| 20260902004912 | 81 | 230 | 1.0 | 2.0 | 0.00 | 0.00 | 0.00 | 40 | 1004.5 |
| 20260902004412 | 81 | 205 | 0.0 | 2.0 | 0.00 | 0.00 | 0.00 | 43 | 1004.4 |
| 20260902004357 | 80 | 196 | 0.0 | 1.0 | 0.00 | 0.00 | 0.00 | 43 | 1004.3 |
| 20260902003412 | 81 | 109 | 0.0 | 1.0 | 0.00 | 0.00 | 0.00 | 42 | 1004.3 |
| 20260902002913 | 82 | 110 | 0.0 | 3.0 | 0.00 | 0.00 | 0.00 | 42 | 1004.4 |
| 20260902002412 | 82 | 110 | 1.0 | 4.0 | 0.00 | 0.00 | 0.00 | 37 | 1004.4 |
| 20260902001911 | 82 | 85 | 1.0 | 4.0 | 0.00 | 0.00 | 0.00 | 37 | 1004.3 |
| 20260902001412 | 83 | 172 | 1.0 | 2.0 | 0.00 | 0.00 | 0.00 | 40 | 1004.2 |
| 20260902000912 | 83 | 101 | 0.0 | 2.0 | 0.00 | 0.00 | 0.00 | 36 | 1004.2 |
| 20260902000408 | 82 | 232 | 1.0 | 3.0 | 0.00 | 0.00 | 0.00 | 39 | 1004.3 |
| 20260901235907 | 81 | 178 | 1.0 | 4.0 | 0.00 | 0.00 | 0.00 | 40 | 1004.2 |
| 20260901235404 | 81 | 197 | 1.0 | 4.0 | 0.00 | 0.00 | 0.00 | 40 | 1004.3 |
| 20260901234901 | 81 | 268 | 1.0 | 7.0 | 0.00 | 0.00 | 0.00 | 42 | 1004.3 |
| 20260901234404 | 81 | 284 | 2.0 | 7.0 | 0.00 | 0.00 | 0.00 | 44 | 1004.4 |
| 20260901233904 | 81 | 199 | 2.0 | 6.0 | 0.00 | 0.00 | 0.00 | 42 | 1004.3 |
| 20260901233402 | 81 | 284 | 2.0 | 6.0 | 0.00 | 0.00 | 0.00 | 39 | 1004.3 |
| 20260901232902 | 82 | 193 | 1.0 | 3.0 | 0.00 | 0.00 | 0.00 | 43 | 1004.3 |
| 20260901232634 | 81 | 157 | 1.0 | 3.0 | 0.00 | 0.00 | 0.00 | 40 | 1004.4 |
| 20260901231857 | 81 | 331 | 2.0 | 6.0 | 0.00 | 0.00 | 0.00 | 40 | 1004.5 |
| 20260901231351 | 82 | 279 | 2.0 | 6.0 | 0.00 | 0.00 | 0.00 | 38 | 1004.6 |
| 20260901230844 | 81 | 309 | 1.0 | 4.0 | 0.00 | 0.00 | 0.00 | 41 | 1004.6 |
| 20260901230338 | 83 | 307 | 1.0 | 3.0 | 0.00 | 0.00 | 0.00 | 38 | 1004.6 |
| 20260901225832 | 83 | 82 | 1.0 | 3.0 | 0.00 | 0.00 | 0.00 | 39 | 1004.6 |
| 20260901225327 | 82 | 330 | 1.0 | 3.0 | 0.00 | 0.00 | 0.00 | 42 | 1004.7 |
| 20260901224821 | 82 | 62 | 2.0 | 4.0 | 0.00 | 0.00 | 0.00 | 41 | 1004.8 |
| 20260901224314 | 82 | 37 | 2.0 | 4.0 | 0.00 | 0.00 | 0.00 | 44 | 1004.9 |
| 20260901223815 | 82 | 22 | 2.0 | 7.0 | 0.00 | 0.00 | 0.00 | 40 | 1005.0 |
| 20260901223312 | 81 | 68 | 2.0 | 7.0 | 0.00 | 0.00 | 0.00 | 42 | 1004.9 |
| 20260901222812 | 80 | 58 | 1.0 | 3.0 | 0.00 | 0.00 | 0.00 | 41 | 1005.0 |
| 20260901222311 | 80 | 18 | 1.0 | 3.0 | 0.00 | 0.00 | 0.00 | 43 | 1004.9 |
| 20260901221812 | 80 | 60 | 2.0 | 4.0 | 0.00 | 0.00 | 0.00 | 41 | 1005.0 |
| 20260901221535 | 80 | 43 | 2.0 | 4.0 | 0.00 | 0.00 | 0.00 | 41 | 1005.0 |
| 20260901221036 | 80 | 19 | 2.0 | 4.0 | 0.00 | 0.00 | 0.00 | 41 | 1005.0 |
| 20260901220313 | 80 | 48 | 1.0 | 4.0 | 0.00 | 0.00 | 0.00 | 40 | 1005.3 |
| 20260901215811 | 80 | 15 | 1.0 | 4.0 | 0.00 | 0.00 | 0.00 | 44 | 1005.3 |
| 20260901215310 | 80 | 23 | 2.0 | 7.0 | 0.00 | 0.00 | 0.00 | 44 | 1005.4 |
| 20260901214810 | 81 | 28 | 3.0 | 7.0 | 0.00 | 0.00 | 0.00 | 40 | 1005.4 |
| 20260901214309 | 80 | 85 | 3.0 | 6.0 | 0.00 | 0.00 | 0.00 | 41 | 1005.5 |
| 20260901213809 | 79 | 29 | 2.0 | 6.0 | 0.00 | 0.00 | 0.00 | 41 | 1005.4 |
| 20260901213310 | 80 | 38 | 2.0 | 5.0 | 0.00 | 0.00 | 0.00 | 44 | 1005.5 |
| 20260901212809 | 80 | 43 | 1.0 | 3.0 | 0.00 | 0.00 | 0.00 | 44 | 1005.4 |
| 20260901212534 | 80 | 64 | 1.0 | 3.0 | 0.00 | 0.00 | 0.00 | 41 | 1005.7 |
| 20260901211809 | 79 | 43 | 1.0 | 3.0 | 0.00 | 0.00 | 0.00 | 44 | 1005.6 |
| 20260901211522 | 79 | 2 | 1.0 | 3.0 | 0.00 | 0.00 | 0.00 | 44 | 1005.7 |
| 20260901210756 | 79 | 60 | 1.0 | 3.0 | 0.00 | 0.00 | 0.00 | 50 | 1005.8 |
| 20260901210250 | 78 | 180 | 1.0 | 4.0 | 0.00 | 0.00 | 0.00 | 42 | 1006.0 |
| 20260901205745 | 77 | 239 | 1.0 | 4.0 | 0.00 | 0.00 | 0.00 | 45 | 1005.9 |
| 20260901205239 | 76 | 316 | 2.0 | 8.0 | 0.00 | 0.00 | 0.00 | 45 | 1006.1 |
| 20260901204733 | 76 | 214 | 4.0 | 8.0 | 0.00 | 0.00 | 0.00 | 44 | 1006.2 |
| 20260901204227 | 77 | 278 | 4.0 | 8.0 | 0.00 | 0.00 | 0.00 | 45 | 1006.2 |
| 20260901203721 | 77 | 265 | 4.0 | 8.0 | 0.00 | 0.00 | 0.00 | 46 | 1006.3 |
| 20260901203215 | 77 | 304 | 4.0 | 9.0 | 0.00 | 0.00 | 0.00 | 47 | 1006.1 |
| 20260901202709 | 77 | 246 | 3.0 | 11.0 | 0.00 | 0.00 | 0.00 | 44 | 1006.0 |
| 20260901202202 | 76 | 309 | 3.0 | 7.0 | 0.00 | 0.00 | 0.00 | 48 | 1006.1 |
| 20260901201656 | 76 | 299 | 2.0 | 6.0 | 0.00 | 0.00 | 0.00 | 48 | 1006.1 |
| 20260901201150 | 76 | 232 | 2.0 | 3.0 | 0.00 | 0.00 | 0.00 | 47 | 1005.9 |
| 20260901200645 | 75 | 223 | 1.0 | 3.0 | 0.00 | 0.00 | 0.00 | 47 | 1005.8 |
| 20260901200407 | 75 | 195 | 0.0 | 2.0 | 0.00 | 0.00 | 0.00 | 46 | 1005.6 |
| 20260901195632 | 75 | 54 | 1.0 | 3.0 | 0.00 | 0.00 | 0.00 | 47 | 1005.3 |
| 20260901195127 | 75 | 49 | 1.0 | 3.0 | 0.00 | 0.00 | 0.00 | 47 | 1005.4 |
| 20260901194627 | 75 | 17 | 1.0 | 3.0 | 0.00 | 0.00 | 0.00 | 47 | 1005.4 |
| 20260901194127 | 74 | 64 | 2.0 | 5.0 | 0.00 | 0.00 | 0.00 | 45 | 1005.5 |
| 20260901193628 | 75 | 323 | 2.0 | 5.0 | 0.00 | 0.00 | 0.00 | 45 | 1005.9 |
| 20260901193124 | 75 | 313 | 2.0 | 5.0 | 0.00 | 0.00 | 0.00 | 44 | 1006.1 |
| 20260901192623 | 75 | 304 | 2.0 | 5.0 | 0.00 | 0.00 | 0.00 | 44 | 1006.3 |
| 20260901192123 | 74 | 289 | 2.0 | 4.0 | 0.00 | 0.00 | 0.00 | 46 | 1006.4 |
| 20260901191623 | 74 | 240 | 3.0 | 7.0 | 0.00 | 0.00 | 0.00 | 46 | 1006.6 |
| 20260901191343 | 74 | 273 | 3.0 | 7.0 | 0.00 | 0.00 | 0.00 | 47 | 1006.7 |
| 20260901190624 | 74 | 179 | 3.0 | 6.0 | 0.00 | 0.00 | 0.00 | 46 | 1006.8 |
| 20260901190124 | 73 | 212 | 3.0 | 7.0 | 0.00 | 0.00 | 0.00 | 47 | 1006.8 |
| 20260901185625 | 73 | 235 | 3.0 | 10.0 | 0.00 | 0.00 | 0.00 | 49 | 1006.9 |
| 20260901185123 | 73 | 195 | 3.0 | 10.0 | 0.00 | 0.00 | 0.00 | 48 | 1006.9 |
| 20260901184623 | 73 | 237 | 3.0 | 7.0 | 0.00 | 0.00 | 0.00 | 49 | 1007.0 |
| 20260901184348 | 72 | 237 | 1.0 | 7.0 | 0.00 | 0.00 | 0.00 | 51 | 1007.2 |
| 20260901183624 | 72 | 173 | 0.0 | 3.0 | 0.00 | 0.00 | 0.00 | 50 | 1007.2 |
| 20260901183124 | 72 | 293 | 0.0 | 0.0 | 0.00 | 0.00 | 0.00 | 49 | 1007.3 |
| 20260901182624 | 72 | 272 | 0.0 | 0.0 | 0.00 | 0.00 | 0.00 | 49 | 1007.0 |
| 20260901182117 | 72 | 214 | 1.0 | 4.0 | 0.00 | 0.00 | 0.00 | 48 | 1007.1 |
| 20260901181616 | 72 | 122 | 1.0 | 4.0 | 0.00 | 0.00 | 0.00 | 49 | 1007.2 |
| 20260901181341 | 73 | 92 | 1.0 | 3.0 | 0.00 | 0.00 | 0.00 | 48 | 1007.1 |
| 20260901180614 | 73 | 193 | 1.0 | 5.0 | 0.00 | 0.00 | 0.00 | 46 | 1007.1 |
| 20260901180113 | 73 | 212 | 1.0 | 5.0 | 0.00 | 0.00 | 0.00 | 46 | 1007.2 |
| 20260901175614 | 73 | 203 | 1.0 | 4.0 | 0.00 | 0.00 | 0.00 | 46 | 1007.5 |
| 20260901175114 | 73 | 208 | 1.0 | 4.0 | 0.00 | 0.00 | 0.00 | 46 | 1007.4 |
| 20260901174613 | 73 | 199 | 1.0 | 3.0 | 0.00 | 0.00 | 0.00 | 45 | 1007.3 |
| 20260901174115 | 73 | 214 | 2.0 | 6.0 | 0.00 | 0.00 | 0.00 | 45 | 1007.2 |
| 20260901173613 | 73 | 196 | 2.0 | 6.0 | 0.00 | 0.00 | 0.00 | 43 | 1007.2 |
| 20260901173115 | 73 | 251 | 2.0 | 5.0 | 0.00 | 0.00 | 0.00 | 43 | 1007.3 |
| 20260901172611 | 73 | 246 | 3.0 | 7.0 | 0.00 | 0.00 | 0.00 | 42 | 1007.1 |
| 20260901172112 | 74 | 283 | 3.0 | 7.0 | 0.00 | 0.00 | 0.00 | 42 | 1006.9 |
| 20260901171611 | 74 | 253 | 3.0 | 10.0 | 0.00 | 0.00 | 0.00 | 43 | 1006.9 |
| 20260901171111 | 74 | 303 | 3.0 | 10.0 | 0.00 | 0.00 | 0.00 | 43 | 1006.7 |
| 20260901170833 | 74 | 283 | 2.0 | 5.0 | 0.00 | 0.00 | 0.00 | 44 | 1006.7 |
| 20260901170112 | 73 | 293 | 3.0 | 7.0 | 0.00 | 0.00 | 0.00 | 44 | 1006.2 |
| 20260901165612 | 73 | 257 | 3.0 | 7.0 | 0.00 | 0.00 | 0.00 | 43 | 1006.4 |
| 20260901165113 | 72 | 284 | 3.0 | 5.0 | 0.00 | 0.00 | 0.00 | 45 | 1006.4 |
| 20260901164612 | 72 | 291 | 3.0 | 5.0 | 0.00 | 0.00 | 0.00 | 46 | 1006.4 |
| 20260901164107 | 71 | 280 | 3.0 | 4.0 | 0.00 | 0.00 | 0.00 | 46 | 1006.3 |
| 20260901163836 | 71 | 272 | 2.0 | 4.0 | 0.00 | 0.00 | 0.00 | 47 | 1006.4 |
| 20260901163109 | 70 | 289 | 1.0 | 3.0 | 0.00 | 0.00 | 0.00 | 48 | 1006.4 |
| 20260901162607 | 69 | 316 | 1.0 | 3.0 | 0.00 | 0.00 | 0.00 | 49 | 1006.4 |
| 20260901162107 | 68 | 265 | 1.0 | 3.0 | 0.00 | 0.00 | 0.00 | 52 | 1006.6 |
| 20260901161607 | 67 | 315 | 1.0 | 3.0 | 0.00 | 0.00 | 0.00 | 54 | 1006.6 |
| 20260901161108 | 66 | 284 | 0.0 | 3.0 | 0.00 | 0.00 | 0.00 | 56 | 1006.7 |
| 20260901160607 | 65 | 305 | 0.0 | 0.0 | 0.00 | 0.00 | 0.00 | 62 | 1006.7 |
| 20260901160336 | 64 | 303 | 0.0 | 0.0 | 0.00 | 0.00 | 0.00 | 65 | 1006.8 |
| 20260901155827 | 63 | 287 | 0.0 | 0.0 | 0.00 | 0.00 | 0.00 | 67 | 1006.8 |
| 20260901155335 | 62 | 254 | 0.0 | 0.0 | 0.00 | 0.00 | 0.00 | 71 | 1006.9 |
| 20260901154604 | 61 | 254 | 0.0 | 0.0 | 0.00 | 0.00 | 0.00 | 71 | 1006.9 |
| 20260901154104 | 61 | 254 | 0.0 | 0.0 | 0.00 | 0.00 | 0.00 | 71 | 1007.1 |
| 20260901153827 | 60 | 254 | 0.0 | 0.0 | 0.00 | 0.00 | 0.00 | 73 | 1007.0 |
| 20260901153320 | 60 | 254 | 0.0 | 0.0 | 0.00 | 0.00 | 0.00 | 75 | 1006.9 |
| 20260901152603 | 59 | 65 | 0.0 | 0.0 | 0.00 | 0.00 | 0.00 | 74 | 1006.8 |
| 20260901152104 | 59 | 65 | 0.0 | 0.0 | 0.00 | 0.00 | 0.00 | 74 | 1006.6 |
| 20260901151605 | 59 | 65 | 0.0 | 0.0 | 0.00 | 0.00 | 0.00 | 74 | 1006.4 |
| 20260901151058 | 58 | 65 | 0.0 | 0.0 | 0.00 | 0.00 | 0.00 | 73 | 1006.4 |
| 20260901150815 | 58 | 65 | 0.0 | 0.0 | 0.00 | 0.00 | 0.00 | 74 | 1006.4 |
| 20260901150050 | 58 | 95 | 0.0 | 0.0 | 0.00 | 0.00 | 0.00 | 75 | 1006.4 |
| 20260901145551 | 57 | 63 | 0.0 | 0.0 | 0.00 | 0.00 | 0.00 | 75 | 1006.3 |
| 20260901145049 | 57 | 63 | 0.0 | 0.0 | 0.00 | 0.00 | 0.00 | 75 | 1006.2 |
| 20260901144549 | 56 | 63 | 0.0 | 0.0 | 0.00 | 0.00 | 0.00 | 74 | 1006.2 |
| 20260901144049 | 56 | 63 | 0.0 | 0.0 | 0.00 | 0.00 | 0.00 | 73 | 1006.1 |
| 20260901143549 | 56 | 79 | 0.0 | 2.0 | 0.00 | 0.00 | 0.00 | 73 | 1006.0 |
| 20260901143050 | 56 | 79 | 1.0 | 2.0 | 0.00 | 0.00 | 0.00 | 73 | 1006.0 |
| 20260901142813 | 56 | 85 | 1.0 | 2.0 | 0.00 | 0.00 | 0.00 | 73 | 1006.1 |
| 20260901142050 | 56 | 85 | 1.0 | 2.0 | 0.00 | 0.00 | 0.00 | 72 | 1006.0 |
| 20260901141547 | 56 | 77 | 0.0 | 2.0 | 0.00 | 0.00 | 0.00 | 72 | 1005.9 |
| 20260901141048 | 56 | 77 | 0.0 | 0.0 | 0.00 | 0.00 | 0.00 | 71 | 1005.9 |
| 20260901140545 | 56 | 77 | 0.0 | 2.0 | 0.00 | 0.00 | 0.00 | 71 | 1005.9 |
| 20260901140043 | 56 | 77 | 0.0 | 2.0 | 0.00 | 0.00 | 0.00 | 71 | 1005.8 |
| 20260901135542 | 56 | 76 | 0.0 | 0.0 | 0.00 | 0.00 | 0.00 | 71 | 1005.7 |
| 20260901135040 | 56 | 72 | 0.0 | 0.0 | 0.00 | 0.00 | 0.00 | 71 | 1005.7 |
| 20260901134757 | 56 | 74 | 0.0 | 0.0 | 0.00 | 0.00 | 0.00 | 71 | 1005.7 |
| 20260901134034 | 56 | 72 | 0.0 | 0.0 | 0.00 | 0.00 | 0.00 | 71 | 1005.7 |
| 20260901133534 | 56 | 72 | 0.0 | 0.0 | 0.00 | 0.00 | 0.00 | 70 | 1005.5 |
| 20260901133028 | 56 | 72 | 0.0 | 0.0 | 0.00 | 0.00 | 0.00 | 70 | 1005.6 |
| 20260901132756 | 56 | 72 | 0.0 | 0.0 | 0.00 | 0.00 | 0.00 | 69 | 1005.5 |
| 20260901132244 | 56 | 72 | 0.0 | 0.0 | 0.00 | 0.00 | 0.00 | 69 | 1005.6 |
| 20260901131511 | 56 | 72 | 0.0 | 0.0 | 0.00 | 0.00 | 0.00 | 68 | 1005.6 |
| 20260901131006 | 56 | 72 | 0.0 | 0.0 | 0.00 | 0.00 | 0.00 | 68 | 1005.5 |
| 20260901130720 | 56 | 72 | 0.0 | 0.0 | 0.00 | 0.00 | 0.00 | 67 | 1005.4 |
| 20260901130432 | 56 | 72 | 0.0 | 0.0 | 0.00 | 0.00 | 0.00 | 68 | 1005.4 |
| 20260901125447 | 56 | 49 | 0.0 | 0.0 | 0.00 | 0.00 | 0.00 | 66 | 1005.4 |
| 20260901124940 | 56 | 49 | 0.0 | 0.0 | 0.00 | 0.00 | 0.00 | 66 | 1005.4 |
| 20260901124434 | 56 | 49 | 0.0 | 0.0 | 0.00 | 0.00 | 0.00 | 67 | 1005.5 |
| 20260901124155 | 56 | 49 | 0.0 | 0.0 | 0.00 | 0.00 | 0.00 | 66 | 1005.5 |
| 20260901123423 | 56 | 49 | 0.0 | 0.0 | 0.00 | 0.00 | 0.00 | 66 | 1005.4 |
| 20260901122917 | 57 | 49 | 0.0 | 0.0 | 0.00 | 0.00 | 0.00 | 66 | 1005.4 |
| 20260901122410 | 57 | 49 | 0.0 | 0.0 | 0.00 | 0.00 | 0.00 | 65 | 1005.4 |
| 20260901121904 | 57 | 49 | 0.0 | 0.0 | 0.00 | 0.00 | 0.00 | 64 | 1005.4 |
| 20260901121358 | 57 | 49 | 0.0 | 0.0 | 0.00 | 0.00 | 0.00 | 64 | 1005.4 |
| 20260901120853 | 57 | 49 | 0.0 | 0.0 | 0.00 | 0.00 | 0.00 | 64 | 1005.5 |
| 20260901120347 | 57 | 49 | 0.0 | 0.0 | 0.00 | 0.00 | 0.00 | 63 | 1005.5 |
| 20260901120106 | 57 | 49 | 0.0 | 0.0 | 0.00 | 0.00 | 0.00 | 62 | 1005.3 |
| 20260901115334 | 57 | 49 | 0.0 | 0.0 | 0.00 | 0.00 | 0.00 | 61 | 1005.4 |
| 20260901114829 | 57 | 49 | 0.0 | 0.0 | 0.00 | 0.00 | 0.00 | 62 | 1005.4 |
| 20260901114322 | 57 | 49 | 0.0 | 0.0 | 0.00 | 0.00 | 0.00 | 61 | 1005.5 |
| 20260901113817 | 57 | 49 | 0.0 | 0.0 | 0.00 | 0.00 | 0.00 | 60 | 1005.6 |
| 20260901113539 | 57 | 49 | 0.0 | 0.0 | 0.00 | 0.00 | 0.00 | 60 | 1005.6 |
| 20260901112805 | 57 | 49 | 0.0 | 2.0 | 0.00 | 0.00 | 0.00 | 60 | 1005.6 |
| 20260901112259 | 57 | 49 | 1.0 | 2.0 | 0.00 | 0.00 | 0.00 | 60 | 1005.6 |
| 20260901111753 | 57 | 51 | 1.0 | 2.0 | 0.00 | 0.00 | 0.00 | 61 | 1005.6 |
| 20260901111250 | 57 | 68 | 1.0 | 3.0 | 0.00 | 0.00 | 0.00 | 61 | 1005.7 |
| 20260901110740 | 57 | 66 | 1.0 | 3.0 | 0.00 | 0.00 | 0.00 | 61 | 1005.7 |
| 20260901110235 | 58 | 84 | 0.0 | 3.0 | 0.00 | 0.00 | 0.00 | 61 | 1005.6 |
| 20260901105728 | 58 | 71 | 0.0 | 0.0 | 0.00 | 0.00 | 0.00 | 60 | 1005.7 |
| 20260901105222 | 58 | 73 | 0.0 | 0.0 | 0.00 | 0.00 | 0.00 | 60 | 1005.8 |
| 20260901104716 | 58 | 64 | 0.0 | 0.0 | 0.00 | 0.00 | 0.00 | 60 | 1005.8 |
| 20260901104211 | 58 | 66 | 0.0 | 2.0 | 0.00 | 0.00 | 0.00 | 60 | 1005.7 |
| 20260901103705 | 58 | 96 | 0.0 | 2.0 | 0.00 | 0.00 | 0.00 | 60 | 1005.7 |
| 20260901103200 | 58 | 97 | 1.0 | 2.0 | 0.00 | 0.00 | 0.00 | 60 | 1005.8 |
| 20260901103152 | 58 | 98 | 1.0 | 2.0 | 0.00 | 0.00 | 0.00 | 60 | 1005.8 |
| 20260901102148 | 58 | 100 | 1.0 | 2.0 | 0.00 | 0.00 | 0.00 | 59 | 1005.8 |
| 20260901101648 | 58 | 74 | 1.0 | 2.0 | 0.00 | 0.00 | 0.00 | 58 | 1005.8 |
| 20260901101406 | 58 | 52 | 1.0 | 3.0 | 0.00 | 0.00 | 0.00 | 58 | 1005.9 |
| 20260901100646 | 58 | 58 | 1.0 | 3.0 | 0.00 | 0.00 | 0.00 | 58 | 1005.9 |
| 20260901100147 | 58 | 69 | 0.0 | 1.0 | 0.00 | 0.00 | 0.00 | 57 | 1005.9 |
| 20260901095648 | 58 | 83 | 0.0 | 2.0 | 0.00 | 0.00 | 0.00 | 57 | 1006.0 |
| 20260901095146 | 58 | 97 | 0.0 | 2.0 | 0.00 | 0.00 | 0.00 | 57 | 1005.9 |
| 20260901094647 | 58 | 129 | 0.0 | 4.0 | 0.00 | 0.00 | 0.00 | 56 | 1006.0 |
| 20260901094409 | 58 | 122 | 1.0 | 4.0 | 0.00 | 0.00 | 0.00 | 55 | 1006.0 |
| 20260901093644 | 58 | 177 | 2.0 | 10.0 | 0.00 | 0.00 | 0.00 | 55 | 1006.0 |
| 20260901093146 | 58 | 160 | 2.0 | 10.0 | 0.00 | 0.00 | 0.00 | 56 | 1006.0 |
| 20260901092646 | 58 | 205 | 0.0 | 6.0 | 0.00 | 0.00 | 0.00 | 57 | 1006.1 |
| 20260901092146 | 58 | 224 | 0.0 | 0.0 | 0.00 | 0.00 | 0.00 | 58 | 1006.1 |
| 20260901091645 | 58 | 188 | 0.0 | 0.0 | 0.00 | 0.00 | 0.00 | 58 | 1006.0 |
| 20260901091142 | 58 | 180 | 0.0 | 2.0 | 0.00 | 0.00 | 0.00 | 58 | 1006.0 |
| 20260901090644 | 58 | 90 | 1.0 | 2.0 | 0.00 | 0.00 | 0.00 | 58 | 1006.0 |
| 20260901090139 | 59 | 87 | 1.0 | 2.0 | 0.00 | 0.00 | 0.00 | 58 | 1006.0 |
| 20260901085639 | 59 | 128 | 1.0 | 4.0 | 0.00 | 0.00 | 0.00 | 57 | 1006.0 |
| 20260901085138 | 59 | 102 | 0.0 | 4.0 | 0.00 | 0.00 | 0.00 | 58 | 1005.9 |
| 20260901084638 | 60 | 122 | 0.0 | 0.0 | 0.00 | 0.00 | 0.00 | 57 | 1005.9 |
| 20260901084408 | 60 | 147 | 0.0 | 2.0 | 0.00 | 0.00 | 0.00 | 57 | 1005.9 |
| 20260901083859 | 60 | 124 | 0.0 | 2.0 | 0.00 | 0.00 | 0.00 | 56 | 1005.9 |
| 20260901083404 | 60 | 146 | 0.0 | 0.0 | 0.00 | 0.00 | 0.00 | 56 | 1005.9 |
| 20260901082638 | 60 | 146 | 0.0 | 4.0 | 0.00 | 0.00 | 0.00 | 56 | 1006.0 |
| 20260901082139 | 60 | 146 | 1.0 | 4.0 | 0.00 | 0.00 | 0.00 | 56 | 1005.9 |
| 20260901081856 | 60 | 178 | 1.0 | 2.0 | 0.00 | 0.00 | 0.00 | 54 | 1006.0 |
| 20260901081401 | 61 | 160 | 1.0 | 3.0 | 0.00 | 0.00 | 0.00 | 55 | 1005.9 |
| 20260901080636 | 61 | 87 | 1.0 | 3.0 | 0.00 | 0.00 | 0.00 | 56 | 1005.9 |
| 20260901080136 | 61 | 147 | 2.0 | 4.0 | 0.00 | 0.00 | 0.00 | 56 | 1006.0 |
| 20260901075635 | 61 | 107 | 1.0 | 4.0 | 0.00 | 0.00 | 0.00 | 56 | 1005.9 |
| 20260901075135 | 62 | 153 | 1.0 | 3.0 | 0.00 | 0.00 | 0.00 | 55 | 1005.8 |
| 20260901074636 | 62 | 167 | 0.0 | 0.0 | 0.00 | 0.00 | 0.00 | 55 | 1005.9 |
| 20260901074136 | 62 | 135 | 0.0 | 0.0 | 0.00 | 0.00 | 0.00 | 56 | 1005.9 |
| 20260901073637 | 62 | 118 | 0.0 | 2.0 | 0.00 | 0.00 | 0.00 | 56 | 1005.8 |
| 20260901073134 | 62 | 160 | 0.0 | 2.0 | 0.00 | 0.00 | 0.00 | 56 | 1005.8 |
| 20260901072855 | 62 | 160 | 1.0 | 3.0 | 0.00 | 0.00 | 0.00 | 56 | 1005.8 |
| 20260901072134 | 62 | 178 | 2.0 | 5.0 | 0.00 | 0.00 | 0.00 | 56 | 1005.8 |
| 20260901071636 | 62 | 182 | 2.0 | 5.0 | 0.00 | 0.00 | 0.00 | 58 | 1005.8 |
| 20260901071401 | 62 | 150 | 2.0 | 7.0 | 0.00 | 0.00 | 0.00 | 59 | 1005.8 |
| 20260901070900 | 62 | 187 | 2.0 | 7.0 | 0.00 | 0.00 | 0.00 | 60 | 1005.8 |
| 20260901070134 | 62 | 164 | 1.0 | 7.0 | 0.00 | 0.00 | 0.00 | 60 | 1005.7 |
| 20260901065630 | 62 | 157 | 1.0 | 2.0 | 0.00 | 0.00 | 0.00 | 60 | 1005.7 |
| 20260901065131 | 62 | 171 | 1.0 | 3.0 | 0.00 | 0.00 | 0.00 | 59 | 1005.8 |
| 20260901064630 | 62 | 143 | 2.0 | 5.0 | 0.00 | 0.00 | 0.00 | 59 | 1005.7 |
| 20260901064352 | 62 | 176 | 2.0 | 5.0 | 0.00 | 0.00 | 0.00 | 58 | 1005.7 |
| 20260901063624 | 62 | 160 | 1.0 | 5.0 | 0.00 | 0.00 | 0.00 | 58 | 1005.7 |
| 20260901063124 | 61 | 176 | 1.0 | 3.0 | 0.00 | 0.00 | 0.00 | 57 | 1005.7 |
| 20260901062624 | 61 | 158 | 1.0 | 3.0 | 0.00 | 0.00 | 0.00 | 56 | 1005.6 |
| 20260901062126 | 61 | 125 | 1.0 | 2.0 | 0.00 | 0.00 | 0.00 | 56 | 1005.7 |
| 20260901061624 | 61 | 149 | 1.0 | 4.0 | 0.00 | 0.00 | 0.00 | 56 | 1005.7 |
| 20260901061125 | 61 | 114 | 2.0 | 4.0 | 0.00 | 0.00 | 0.00 | 56 | 1005.6 |
| 20260901060845 | 61 | 97 | 1.0 | 3.0 | 0.00 | 0.00 | 0.00 | 56 | 1005.5 |
| 20260901060124 | 61 | 103 | 2.0 | 4.0 | 0.00 | 0.00 | 0.00 | 54 | 1005.6 |
| 20260901055845 | 61 | 112 | 2.0 | 4.0 | 0.00 | 0.00 | 0.00 | 54 | 1005.7 |
| 20260901055120 | 61 | 99 | 1.0 | 2.0 | 0.00 | 0.00 | 0.00 | 54 | 1005.6 |
| 20260901055105 | 61 | 90 | 1.0 | 2.0 | 0.00 | 0.00 | 0.00 | 53 | 1005.7 |
| 20260901054121 | 62 | 91 | 1.0 | 4.0 | 0.00 | 0.00 | 0.00 | 53 | 1005.7 |
| 20260901053620 | 62 | 85 | 1.0 | 4.0 | 0.00 | 0.00 | 0.00 | 53 | 1005.6 |
| 20260901053121 | 62 | 89 | 0.0 | 1.0 | 0.00 | 0.00 | 0.00 | 54 | 1005.7 |
| 20260901052620 | 63 | 88 | 1.0 | 4.0 | 0.00 | 0.00 | 0.00 | 54 | 1005.5 |
| 20260901052122 | 63 | 87 | 1.0 | 4.0 | 0.00 | 0.00 | 0.00 | 53 | 1005.7 |
| 20260901051620 | 63 | 82 | 0.0 | 3.0 | 0.00 | 0.00 | 0.00 | 54 | 1005.6 |